Weather History for Lafayette, LA

Change the Weather History Date:

Monday, March 25, 2013

  Actual Average Record
Temperature  
Mean Temperature 49 °F 64 °F  
Max Temperature 60 °F 74 °F 89 °F (1899)
Min Temperature 37 °F 54 °F 35 °F (1912)
Degree Days  
Heating Degree Days 16 3  
Month to date heating degree days 189 132  
Since 1 July heating degree days 1199 1362  
Cooling Degree Days 0 3  
Month to date cooling degree days 24 45  
Year to date cooling degree days 55 77  
Moisture  
Dew Point 23 °F    
Average Humidity 42    
Maximum Humidity 64    
Minimum Humidity 20    
Precipitation  
Precipitation 0.00 in 0.13 in 2.17 in (1976)
Month to date precipitation 1.90 3.09  
Year to date precipitation 19.77 13.21  
Snow  
Snow 0.00 in 0.00 in 0.00 in ()
Month to date snowfall 0.0 0.0  
Since 1 July snowfall 0.0 T  
Snow Depth 0.00 in    
Sea Level Pressure  
Sea Level Pressure 30.20 in    
Wind  
Wind Speed 12 mph (North)    
Max Wind Speed 22 mph    
Max Gust Speed 28 mph    
Visibility 10 miles    
Events      
T = Trace of Precipitation, MM = Missing Value Source: NWS Daily Summary

Daily Weather History Graph

Daily Weather History Graph

Search for Another Location

Airport:

Trip Planner

Search our weather history database for the weather conditions in past years. The results will help you decide how hot, cold, wet, or windy it might be!

Date:

Astronomy

Mar. 25, 2013 Rise Set
Actual Time 7:05 AM CDT 7:22 PM CDT
Civil Twilight 6:41 AM CDT 7:46 PM CDT
Nautical Twilight 6:13 AM CDT 8:14 PM CDT
Astronomical Twilight 5:45 AM CDT 8:43 PM CDT
Moon 5:58 PM CDT (3/25) 5:43 AM CDT (3/25)
Length of Visible Light 13h 05m
Length of Day
12h 17m
Waxing Gibbous, 96% of the Moon is Illuminated
Mar 25
Waxing Gibbous
Mar 27
Full
Apr 2
Last Quarter
Apr 10
New
Apr 18
First Quarter

Hourly Weather History & Observations

Time (CDT) Temp. Windchill Dew Point Humidity Pressure Visibility Wind Dir Wind Speed Gust Speed Precip Events Conditions
12:53 AM 46.0 °F 39.6 °F 27.0 °F 47% 30.10 in 10.0 mi North 15.0 mph - N/A   Clear
1:53 AM 44.1 °F 39.0 °F 27.0 °F 51% 30.13 in 10.0 mi North 9.2 mph - N/A   Clear
2:53 AM 43.0 °F 37.2 °F 28.0 °F 56% 30.12 in 10.0 mi North 10.4 mph - N/A   Clear
3:53 AM 41.0 °F 35.2 °F 28.0 °F 60% 30.12 in 10.0 mi North 9.2 mph - N/A   Clear
4:53 AM 39.9 °F 33.9 °F 26.1 °F 58% 30.13 in 10.0 mi North 9.2 mph - N/A   Clear
5:53 AM 39.0 °F 32.3 °F 26.1 °F 60% 30.15 in 10.0 mi North 10.4 mph - N/A   Clear
6:53 AM 37.9 °F 29.2 °F 26.1 °F 62% 30.18 in 10.0 mi North 15.0 mph - N/A   Clear
7:53 AM 39.0 °F 31.4 °F 26.1 °F 60% 30.20 in 10.0 mi North 12.7 mph 19.6 mph N/A   Clear
8:53 AM 41.0 °F 33.5 °F 25.0 °F 53% 30.24 in 10.0 mi North 13.8 mph 21.9 mph N/A   Clear
9:53 AM 46.0 °F 40.6 °F 24.1 °F 42% 30.26 in 10.0 mi North 11.5 mph 20.7 mph N/A   Clear
10:53 AM 48.0 °F - 21.9 °F 36% 30.28 in 10.0 mi North 11.5 mph 18.4 mph N/A   Clear
11:53 AM 51.1 °F - 21.9 °F 32% 30.27 in 10.0 mi NNE 10.4 mph - N/A   Clear
12:53 PM 55.0 °F - 23.0 °F 29% 30.25 in 10.0 mi NNE 15.0 mph 19.6 mph N/A   Clear
1:53 PM 55.9 °F - 19.9 °F 25% 30.23 in 10.0 mi North 16.1 mph 26.5 mph N/A   Clear
2:53 PM 57.9 °F - 21.9 °F 25% 30.19 in 10.0 mi NNW 17.3 mph 21.9 mph N/A   Clear
3:53 PM 59.0 °F - 21.0 °F 23% 30.17 in 10.0 mi NNW 12.7 mph 25.3 mph N/A   Clear
4:53 PM 60.1 °F - 19.9 °F 21% 30.17 in 10.0 mi NNW 13.8 mph 23.0 mph N/A   Clear
5:53 PM 60.1 °F - 19.9 °F 21% 30.17 in 10.0 mi NNW 16.1 mph 21.9 mph N/A   Clear
6:53 PM 57.9 °F - 19.9 °F 23% 30.18 in 10.0 mi NW 11.5 mph 19.6 mph N/A   Clear
7:53 PM 54.0 °F - 21.9 °F 29% 30.21 in 10.0 mi NNW 6.9 mph - N/A   Clear
8:53 PM 53.1 °F - 21.0 °F 29% 30.24 in 10.0 mi NNW 8.1 mph - N/A   Clear
9:53 PM 50.0 °F - 21.9 °F 33% 30.27 in 10.0 mi NNW 8.1 mph - N/A   Clear
10:53 PM 48.9 °F - 24.1 °F 38% 30.30 in 10.0 mi NNW 8.1 mph - N/A   Clear
11:53 PM 48.0 °F - 21.9 °F 36% 30.31 in 10.0 mi NNW 10.4 mph - N/A   Clear